QPF
0.02 0.05 0.12 0.18 0.12 0.12 0.05 0.01 0.05 0.02 0.01 0.02 0.00 0.00 0.00 0.00 0.00 0.00 0.00 0.00 0.00 0.00 0.00 0.00 0.00 0.00 0.00 0.00 0.00 0.00 0.00 0.00 0.00 0.00 0.00 0.00 0.00 0.00 0.00 0.00 0.00 0.02 0.02 0.00
0.03 0.08 0.12 0.19 0.21 0.14 0.12 0.02 0.05 0.04 0.01 0.02 0.01 0.00 0.00 0.00 0.00 0.00 0.00 0.00 0.00 0.00 0.00 0.00 0.00 0.00 0.00 0.00 0.00 0.00 0.00 0.00 0.00 0.00 0.00 0.00 0.00 0.00 0.00 0.00 0.01 0.01 0.00 0.00
0.05 0.09 0.16 0.22 0.19 0.14 0.11 0.06 0.07 0.07 0.01 0.00 0.00 0.00 0.00 0.00 0.00 0.00 0.00 0.00 0.00 0.00 0.00 0.00 0.00 0.00 0.00 0.00 0.00 0.00 0.00 0.00 0.00 0.00 0.00 0.00 0.00 0.00 0.00 0.00 0.01 0.00 0.00 0.00
0.05 0.07 0.11 0.18 0.16 0.13 0.09 0.05 0.00 0.01 0.01 0.00 0.00 0.00 0.00 0.00 0.00 0.00 0.00 0.00 0.00 0.00 0.00 0.00 0.00 0.00 0.00 0.00 0.00 0.00 0.00 0.00 0.00 0.00 0.00 0.00 0.00 0.00 0.00 0.00 0.00 0.01 0.00 0.01
0.05 0.05 0.07 0.17 0.14 0.12 0.08 0.03 0.00 0.00 0.00 0.00 0.01 0.01 0.00 0.00 0.00 0.00 0.00 0.00 0.00 0.00 0.00 0.00 0.00 0.00 0.00 0.00 0.00 0.00 0.00 0.00 0.00 0.00 0.00 0.00 0.00 0.00 0.00 0.00 0.00 0.00 0.01 0.03
0.04 0.04 0.05 0.07 0.13 0.07 0.04 0.00 0.00 0.00 0.00 0.00 0.01 0.01 0.00 0.00 0.00 0.00 0.00 0.00 0.00 0.00 0.00 0.00 0.00 0.00 0.00 0.00 0.00 0.00 0.00 0.00 0.00 0.00 0.00 0.00 0.00 0.00 0.00 0.00 0.00 0.00 0.03 0.02
0.03 0.03 0.04 0.04 0.03 0.03 0.01 0.00 0.00 0.00 0.00 0.00 0.00 0.00 0.01 0.01 0.00 0.00 0.00 0.00 0.00 0.00 0.00 0.00 0.00 0.00 0.00 0.00 0.00 0.00 0.00 0.00 0.00 0.00 0.00 0.00 0.00 0.00 0.00 0.00 0.00 0.00 0.01 0.00
0.04 0.07 0.08 0.05 0.02 0.00 0.00 0.00 0.00 0.00 0.00 0.00 0.00 0.01 0.01 0.00 0.00 0.00 0.00 0.00 0.00 0.00 0.00 0.00 0.00 0.00 0.00 0.00 0.00 0.00 0.00 0.00 0.00 0.00 0.00 0.00 0.00 0.00 0.00 0.00 0.02 0.01 0.00 0.00
0.06 0.08 0.09 0.05 0.03 0.01 0.00 0.00 0.00 0.00 0.00 0.00 0.00 0.00 0.00 0.00 0.00 0.00 0.00 0.00 0.00 0.00 0.00 0.00 0.00 0.00 0.00 0.00 0.00 0.00 0.00 0.00 0.00 0.00 0.00 0.00 0.00 0.00 0.00 0.01 0.02 0.01 0.01 0.01
0.07 0.05 0.06 0.06 0.03 0.00 0.00 0.00 0.00 0.00 0.00 0.00 0.00 0.00 0.00 0.00 0.00 0.00 0.00 0.00 0.00 0.00 0.00 0.00 0.00 0.00 0.00 0.00 0.00 0.00 0.00 0.00 0.00 0.00 0.00 0.00 0.00 0.00 0.00 0.00 0.01 0.02 0.03 0.03
0.07 0.03 0.03 0.03 0.00 0.00 0.00 0.00 0.00 0.00 0.00 0.00 0.00 0.00 0.00 0.00 0.00 0.00 0.00 0.00 0.00 0.00 0.00 0.00 0.00 0.00 0.00 0.00 0.00 0.00 0.00 0.00 0.00 0.00 0.00 0.00 0.00 0.00 0.00 0.00 0.01 0.02 0.03 0.02
0.01 0.00 0.00 0.00 0.00 0.00 0.00 0.00 0.00 0.00 0.00 0.00 0.00 0.00 0.00 0.00 0.00 0.00 0.00 0.00 0.00 0.00 0.00 0.00 0.00 0.00 0.00 0.00 0.00 0.00 0.00 0.00 0.00 0.00 0.00 0.00 0.00 0.00 0.00 0.00 0.00 0.01 0.01 0.00
0.00 0.00 0.00 0.00 0.00 0.00 0.00 0.00 0.00 0.00 0.00 0.00 0.00 0.00 0.00 0.00 0.00 0.00 0.00 0.00 0.00 0.00 0.00 0.00 0.00 0.00 0.00 0.00 0.00 0.00 0.00 0.00 0.00 0.00 0.00 0.00 0.00 0.00 0.00 0.00 0.00 0.00 0.00 0.00
0.00 0.00 0.00 0.00 0.00 0.00 0.00 0.00 0.00 0.00 0.00 0.00 0.00 0.00 0.00 0.00 0.00 0.00 0.00 0.00 0.00 0.00 0.00 0.00 0.00 0.00 0.00 0.00 0.00 0.00 0.00 0.00 0.00 0.00 0.00 0.00 0.00 0.00 0.00 0.00 0.00 0.00 0.00 0.00
0.00 0.00 0.00 0.00 0.00 0.00 0.00 0.00 0.00 0.00 0.00 0.00 0.00 0.00 0.00 0.00 0.00 0.00 0.00 0.00 0.00 0.00 0.00 0.00 0.00 0.00 0.00 0.00 0.00 0.00 0.00 0.00 0.00 0.00 0.00 0.00 0.00 0.00 0.00 0.00 0.00 0.00 0.00 0.00
0.00 0.00 0.00 0.00 0.00 0.00 0.00 0.00 0.00 0.00 0.00 0.00 0.00 0.00 0.00 0.00 0.00 0.00 0.00 0.00 0.00 0.00 0.00 0.00 0.00 0.00 0.00 0.00 0.00 0.00 0.00 0.00 0.00 0.00 0.00 0.00 0.00 0.00 0.00 0.00 0.00 0.00 0.00 0.00
0.00 0.00 0.00 0.00 0.00 0.00 0.00 0.00 0.00 0.00 0.00 0.00 0.00 0.00 0.00 0.00 0.00 0.00 0.00 0.00 0.00 0.00 0.00 0.00 0.00 0.00 0.00 0.00 0.00 0.00 0.00 0.00 0.00 0.00 0.00 0.00 0.00 0.00 0.00 0.00 0.00 0.00 0.00 0.00
0.00 0.00 0.00 0.00 0.00 0.00 0.00 0.00 0.00 0.00 0.00 0.00 0.00 0.00 0.00 0.00 0.00 0.00 0.00 0.00 0.00 0.00 0.00 0.00 0.00 0.00 0.00 0.00 0.00 0.00 0.00 0.00 0.00 0.00 0.00 0.00 0.00 0.00 0.00 0.00 0.00 0.00 0.00 0.00
0.00 0.00 0.00 0.00 0.00 0.00 0.00 0.00 0.00 0.00 0.00 0.00 0.00 0.00 0.00 0.00 0.00 0.00 0.00 0.00 0.00 0.00 0.00 0.00 0.00 0.00 0.00 0.00 0.00 0.00 0.00 0.00 0.00 0.00 0.00 0.00 0.00 0.00 0.00 0.00 0.00 0.00 0.00 0.00
0.00 0.00 0.00 0.00 0.00 0.00 0.00 0.00 0.00 0.00 0.00 0.00 0.00 0.00 0.00 0.00 0.00 0.00 0.00 0.00 0.00 0.00 0.00 0.00 0.00 0.00 0.00 0.00 0.00 0.00 0.00 0.00 0.00 0.00 0.00 0.00 0.00 0.00 0.00 0.00 0.00 0.00 0.00 0.00
0.00 0.00 0.00 0.00 0.00 0.00 0.00 0.00 0.00 0.00 0.00 0.00 0.00 0.00 0.00 0.00 0.00 0.00 0.00 0.00 0.00 0.00 0.00 0.00 0.00 0.00 0.00 0.00 0.00 0.00 0.00 0.00 0.00 0.00 0.00 0.00 0.00 0.00 0.00 0.00 0.00 0.00 0.00 0.00
0.00 0.00 0.00 0.00 0.00 0.00 0.00 0.00 0.00 0.00 0.00 0.00 0.00 0.00 0.00 0.00 0.00 0.00 0.00 0.00 0.00 0.00 0.00 0.01 0.00 0.00 0.00 0.00 0.00 0.00 0.00 0.00 0.00 0.00 0.00 0.00 0.00 0.00 0.00 0.00 0.00 0.00 0.00 0.00
0.00 0.00 0.00 0.00 0.00 0.00 0.00 0.00 0.00 0.00 0.00 0.00 0.00 0.00 0.00 0.00 0.00 0.00 0.00 0.00 0.00 0.00 0.00 0.00 0.00 0.00 0.00 0.00 0.00 0.00 0.00 0.00 0.00 0.00 0.00 0.00 0.00 0.00 0.00 0.00 0.00 0.00 0.00 0.00
0.00 0.00 0.00 0.00 0.00 0.00 0.00 0.00 0.00 0.00 0.00 0.00 0.00 0.00 0.00 0.00 0.00 0.00 0.00 0.00 0.00 0.00 0.00 0.00 0.00 0.00 0.00 0.00 0.00 0.00 0.00 0.00 0.00 0.00 0.00 0.00 0.00 0.00 0.00 0.00 0.00 0.00 0.00 0.00
0.00 0.00 0.00 0.00 0.00 0.00 0.00 0.00 0.00 0.00 0.00 0.00 0.00 0.00 0.00 0.00 0.00 0.00 0.00 0.00 0.00 0.00 0.00 0.00 0.00 0.00 0.00 0.00 0.00 0.00 0.00 0.00 0.00 0.00 0.00 0.00 0.00 0.00 0.00 0.00 0.00 0.00 0.00 0.00
0.00 0.00 0.00 0.00 0.00 0.00 0.00 0.00 0.00 0.00 0.00 0.00 0.00 0.00 0.00 0.00 0.00 0.00 0.00 0.00 0.00 0.00 0.00 0.00 0.00 0.00 0.00 0.01 0.01 0.00 0.00 0.00 0.00 0.00 0.00 0.00 0.00 0.00 0.00 0.00 0.00 0.00 0.00 0.00
0.00 0.01 0.00 0.00 0.00 0.00 0.00 0.00 0.00 0.00 0.00 0.00 0.00 0.00 0.00 0.00 0.00 0.00 0.00 0.00 0.00 0.00 0.00 0.00 0.00 0.00 0.00 0.00 0.00 0.00 0.00 0.00 0.00 0.00 0.00 0.00 0.00 0.00 0.00 0.00 0.00 0.00 0.00 0.00
MSLP
1005.30 1006.02 1006.85 1007.17 1008.19 1009.31 1010.43 1012.30 1014.89 1016.10 1015.88 1016.18 1016.23 1015.69 1015.16 1014.58 1014.57 1014.37 1014.54 1014.92 1015.64 1016.78 1017.45 1017.91 1018.66 1019.04 1019.65 1020.10 1020.26 1020.36 1020.38 1020.73 1020.98 1020.79 1020.61 1020.99 1021.46 1021.75 1022.13 1022.35 1022.15 1021.27 1020.47 1018.39
1004.39 1005.38 1006.24 1007.05 1007.63 1008.16 1010.63 1012.28 1015.09 1016.11 1016.08 1015.79 1015.84 1015.52 1015.08 1014.50 1014.53 1014.55 1014.78 1015.21 1015.65 1016.75 1017.49 1018.30 1018.89 1019.37 1019.93 1020.05 1020.25 1020.53 1020.55 1021.01 1021.20 1020.96 1021.32 1021.45 1021.55 1021.82 1022.09 1022.46 1022.31 1020.98 1020.27 1018.28
1003.41 1004.46 1005.23 1006.38 1006.91 1007.76 1009.14 1012.38 1013.92 1015.92 1016.24 1015.44 1014.97 1014.94 1014.63 1014.65 1014.58 1014.65 1014.78 1015.46 1015.87 1016.90 1017.85 1018.29 1019.20 1019.70 1020.35 1020.22 1020.37 1020.31 1020.78 1021.01 1020.95 1020.84 1020.94 1021.43 1021.62 1021.76 1022.07 1022.17 1021.56 1020.53 1019.80 1018.50
1001.86 1003.08 1004.12 1005.35 1006.33 1007.34 1007.62 1011.17 1012.13 1012.26 1013.85 1014.78 1014.53 1014.35 1014.08 1014.30 1014.52 1014.75 1015.04 1015.54 1016.10 1016.70 1018.09 1018.70 1019.15 1019.65 1020.32 1020.63 1020.45 1020.79 1021.22 1021.29 1021.51 1021.31 1021.16 1021.22 1021.22 1021.56 1021.77 1021.76 1021.43 1020.91 1019.93 1019.87
1000.15 1001.69 1003.11 1004.36 1005.62 1007.10 1008.43 1010.22 1010.63 1012.21 1012.51 1013.65 1014.20 1013.92 1013.80 1013.62 1014.26 1014.61 1015.16 1015.59 1016.57 1017.08 1017.55 1017.75 1018.42 1019.01 1020.04 1020.24 1020.85 1021.38 1021.50 1021.94 1021.82 1021.28 1021.01 1020.98 1021.09 1021.39 1021.54 1021.49 1021.42 1021.30 1020.89 1020.29
998.54 1000.56 1002.53 1004.09 1005.33 1006.09 1008.26 1009.25 1009.46 1010.29 1012.49 1012.90 1013.58 1012.88 1013.27 1013.57 1013.93 1014.99 1015.00 1015.71 1016.77 1017.44 1017.88 1018.03 1018.34 1019.05 1019.72 1020.14 1020.79 1021.40 1022.08 1022.01 1021.73 1021.21 1021.01 1020.83 1021.10 1021.29 1021.60 1021.69 1021.93 1022.02 1021.50 1021.41
997.98 1000.31 1002.22 1003.74 1005.09 1005.64 1007.73 1007.75 1008.38 1009.88 1011.82 1011.96 1012.03 1012.37 1012.84 1013.66 1014.04 1014.64 1015.86 1016.03 1016.62 1017.91 1018.05 1018.60 1018.68 1019.70 1020.39 1020.64 1021.01 1021.48 1022.05 1021.94 1021.91 1021.44 1021.03 1021.12 1021.36 1021.67 1021.82 1021.97 1022.20 1022.45 1022.36 1022.18
998.39 1000.35 1002.29 1004.05 1004.99 1006.13 1007.24 1007.18 1007.67 1008.88 1010.64 1011.10 1011.93 1012.12 1013.03 1013.92 1014.47 1015.43 1015.97 1016.68 1016.94 1017.50 1018.02 1018.55 1019.78 1020.55 1020.61 1021.10 1021.50 1021.75 1021.81 1022.02 1022.04 1022.06 1021.85 1021.63 1021.79 1021.95 1022.28 1022.42 1022.68 1023.07 1022.94 1022.67
998.91 1000.76 1002.59 1004.08 1005.15 1006.01 1006.71 1007.63 1007.70 1008.24 1009.97 1011.45 1011.24 1012.40 1012.83 1013.73 1014.83 1016.18 1016.99 1017.44 1017.75 1017.79 1018.33 1018.92 1019.66 1020.02 1020.22 1021.06 1021.91 1022.31 1022.38 1022.53 1022.65 1022.75 1022.62 1021.98 1021.79 1022.31 1022.57 1022.90 1022.90 1023.38 1023.39 1023.28
999.84 1001.58 1003.06 1004.35 1005.60 1006.43 1006.54 1007.54 1007.62 1008.08 1010.49 1011.84 1011.70 1012.39 1013.06 1013.92 1014.81 1016.07 1017.22 1017.72 1018.16 1018.25 1019.06 1019.77 1019.94 1020.04 1020.16 1020.78 1021.57 1022.35 1022.74 1023.22 1023.26 1023.16 1023.21 1022.52 1022.44 1022.60 1022.67 1023.15 1024.03 1023.65 1023.69 1023.72
1001.20 1002.65 1003.99 1005.15 1005.84 1006.06 1006.20 1007.95 1008.05 1007.96 1010.63 1012.23 1012.22 1012.44 1013.22 1013.89 1014.47 1015.53 1016.98 1017.64 1018.46 1019.21 1019.69 1020.17 1020.27 1020.25 1020.60 1020.87 1021.37 1021.96 1022.54 1023.01 1023.27 1023.57 1023.41 1022.91 1022.75 1022.83 1023.19 1023.72 1023.67 1024.00 1024.00 1024.11
1002.43 1003.54 1004.43 1005.09 1005.33 1005.84 1006.37 1007.76 1008.23 1008.26 1009.89 1012.94 1013.04 1013.25 1013.45 1013.27 1013.73 1015.16 1016.75 1017.31 1017.93 1018.68 1019.71 1020.49 1020.58 1020.65 1020.82 1020.97 1021.51 1022.14 1022.49 1022.40 1022.43 1022.76 1022.43 1022.60 1022.79 1023.23 1023.64 1023.92 1024.10 1024.29 1024.42 1024.57
1002.71 1003.45 1004.26 1005.09 1005.74 1006.18 1006.32 1007.87 1008.25 1008.57 1011.36 1012.94 1013.36 1014.21 1014.22 1013.89 1014.22 1014.27 1015.70 1017.44 1017.85 1018.55 1018.91 1019.93 1020.45 1020.61 1020.85 1020.95 1021.22 1021.55 1021.93 1021.99 1022.24 1022.52 1022.40 1022.48 1022.97 1023.34 1023.69 1024.04 1024.25 1024.52 1024.87 1025.07
1003.40 1004.20 1004.90 1005.41 1005.79 1006.14 1006.29 1007.67 1008.91 1009.09 1011.20 1013.81 1015.47 1014.88 1015.16 1015.12 1014.67 1014.70 1015.08 1016.40 1017.84 1018.59 1018.99 1019.63 1020.31 1020.55 1020.77 1020.87 1021.00 1021.18 1021.39 1021.66 1021.97 1022.27 1022.28 1022.68 1023.11 1023.32 1023.68 1024.13 1024.59 1024.94 1025.31 1025.62
1003.87 1004.48 1005.04 1005.47 1005.88 1006.59 1007.16 1008.23 1009.45 1009.42 1010.56 1014.14 1015.86 1015.89 1016.35 1016.07 1015.56 1015.84 1016.29 1016.85 1017.83 1018.62 1019.37 1019.95 1020.56 1020.66 1020.84 1021.10 1021.12 1020.95 1020.89 1020.93 1021.51 1021.49 1021.83 1022.30 1023.03 1023.56 1023.78 1024.35 1025.01 1025.42 1025.73 1025.96
1004.64 1005.18 1005.65 1006.13 1006.51 1006.93 1006.99 1009.52 1010.09 1010.23 1010.05 1013.16 1016.06 1017.45 1017.36 1017.04 1016.88 1017.16 1017.58 1017.92 1018.41 1019.07 1019.69 1020.45 1020.64 1020.71 1020.72 1020.95 1020.85 1020.18 1020.39 1020.62 1020.90 1021.29 1021.94 1022.52 1023.42 1024.05 1024.46 1024.93 1025.47 1025.91 1026.25 1026.54
1005.40 1005.79 1006.22 1006.65 1006.96 1007.60 1009.47 1010.57 1010.78 1010.54 1010.65 1013.39 1016.55 1017.78 1017.91 1017.66 1017.72 1018.42 1018.63 1018.76 1019.27 1019.56 1020.33 1020.55 1020.65 1020.76 1020.76 1020.85 1020.51 1020.08 1020.36 1020.75 1021.23 1021.66 1022.34 1023.38 1023.92 1024.58 1025.31 1025.67 1026.05 1026.40 1026.78 1027.04
1006.21 1006.68 1007.11 1007.58 1008.06 1009.14 1010.40 1011.02 1010.74 1010.82 1011.81 1013.50 1016.36 1018.14 1018.25 1018.09 1018.63 1019.26 1019.61 1019.63 1019.94 1020.38 1020.64 1020.92 1020.83 1021.11 1021.06 1020.59 1020.09 1020.41 1020.83 1021.39 1021.93 1022.46 1022.81 1023.37 1024.44 1025.26 1025.87 1026.33 1026.55 1026.82 1027.14 1027.43
1007.09 1007.51 1007.80 1008.36 1009.73 1011.15 1011.72 1011.43 1011.35 1011.42 1012.64 1014.40 1015.98 1017.30 1018.36 1018.51 1019.13 1019.47 1019.97 1020.12 1020.54 1021.03 1020.89 1021.03 1021.18 1021.09 1020.71 1020.06 1020.11 1020.61 1021.21 1021.62 1022.45 1023.19 1023.70 1024.31 1024.84 1025.67 1026.27 1026.76 1027.08 1027.26 1027.59 1027.86
1007.66 1008.17 1009.20 1011.17 1012.01 1011.74 1011.58 1011.87 1012.31 1013.10 1014.42 1015.02 1016.53 1017.09 1017.88 1018.50 1018.97 1019.70 1020.12 1020.19 1020.73 1020.96 1021.26 1021.28 1021.28 1020.66 1020.52 1020.63 1020.50 1020.97 1021.74 1022.34 1023.00 1023.55 1024.31 1024.84 1025.38 1026.00 1026.59 1027.05 1027.49 1027.78 1028.07 1028.31
1008.51 1010.08 1011.39 1012.09 1011.88 1012.08 1012.98 1014.22 1014.74 1015.54 1016.25 1016.35 1017.06 1017.13 1017.53 1018.51 1018.73 1019.57 1020.30 1020.40 1020.73 1021.03 1021.18 1021.23 1021.19 1020.96 1021.19 1021.54 1021.76 1022.13 1022.70 1023.27 1023.85 1024.27 1024.90 1025.39 1025.86 1026.46 1026.96 1027.48 1027.89 1028.20 1028.55 1028.91
1009.25 1009.98 1011.55 1012.22 1012.89 1013.80 1014.52 1016.21 1016.12 1015.96 1016.56 1016.92 1017.15 1017.50 1017.73 1018.49 1018.55 1019.51 1020.47 1020.53 1021.00 1020.89 1020.97 1021.24 1021.04 1021.13 1021.71 1022.28 1022.87 1023.40 1023.86 1024.34 1024.90 1025.37 1025.88 1026.38 1026.79 1027.14 1027.49 1027.92 1028.32 1028.70 1029.04 1029.42
1009.97 1010.70 1012.57 1013.44 1014.62 1015.13 1015.56 1016.44 1016.52 1016.34 1016.24 1016.63 1016.96 1017.78 1017.86 1018.62 1018.95 1020.07 1020.47 1020.83 1021.12 1020.89 1021.01 1020.90 1020.69 1021.30 1022.07 1022.85 1023.61 1024.25 1024.82 1025.28 1025.74 1026.30 1026.73 1027.13 1027.49 1027.79 1028.16 1028.59 1028.90 1029.19 1029.32 1029.65
1011.53 1012.98 1014.66 1015.42 1015.74 1015.58 1015.55 1015.43 1015.45 1015.95 1016.05 1016.31 1016.89 1017.77 1018.06 1018.98 1019.51 1020.46 1020.86 1021.59 1021.23 1021.40 1021.44 1020.92 1021.03 1021.46 1022.24 1023.17 1023.97 1024.59 1025.28 1025.93 1026.44 1026.88 1027.34 1027.78 1028.14 1028.59 1029.06 1029.34 1029.49 1029.54 1029.60 1029.88
1013.01 1013.91 1015.86 1016.19 1015.98 1015.69 1015.58 1015.47 1015.59 1016.11 1016.23 1016.35 1017.15 1018.07 1018.51 1019.51 1020.18 1020.64 1021.23 1021.79 1021.56 1021.46 1021.17 1021.06 1021.48 1021.88 1022.71 1023.59 1024.39 1025.10 1025.79 1026.50 1027.04 1027.55 1028.02 1028.46 1028.77 1029.04 1029.42 1029.74 1029.79 1029.85 1029.98 1030.08
1014.07 1015.34 1016.17 1016.12 1015.81 1015.84 1015.88 1016.16 1016.45 1016.53 1016.60 1016.80 1017.36 1018.67 1019.35 1020.07 1020.28 1020.74 1021.06 1021.36 1021.44 1021.20 1021.25 1021.54 1022.03 1022.64 1023.27 1024.02 1024.70 1025.47 1026.14 1026.80 1027.44 1028.00 1028.47 1028.84 1029.14 1029.40 1029.76 1030.02 1030.09 1030.10 1030.11 1030.15
1015.65 1016.51 1016.56 1016.51 1016.45 1016.63 1016.81 1016.99 1017.13 1016.95 1016.99 1017.88 1018.30 1019.09 1019.92 1020.31 1020.56 1020.91 1021.01 1021.20 1021.15 1021.39 1021.92 1022.39 1022.72 1023.22 1023.90 1024.52 1025.22 1025.93 1026.55 1027.20 1027.76 1028.25 1028.69 1029.07 1029.46 1029.72 1029.78 1029.99 1030.10 1030.15 1030.16 1030.18
Thickness
5457 5457 5456 5463 5466 5467 5461 5451 5438 5439 5446 5445 5453 5468 5479 5495 5494 5500 5500 5499 5496 5491 5487 5486 5481 5478 5474 5469 5468 5465 5462 5455 5447 5452 5450 5442 5436 5428 5412 5408 5406 5413 5412 5446
5453 5451 5449 5453 5457 5463 5452 5435 5424 5425 5433 5436 5444 5456 5473 5484 5487 5488 5489 5487 5490 5483 5478 5472 5469 5465 5459 5458 5456 5453 5453 5441 5436 5444 5438 5429 5427 5421 5417 5405 5397 5413 5410 5445
5450 5447 5448 5446 5450 5455 5454 5432 5422 5414 5421 5435 5450 5453 5463 5468 5473 5475 5478 5475 5477 5472 5465 5461 5454 5453 5448 5448 5448 5452 5447 5437 5437 5443 5435 5422 5416 5413 5408 5405 5406 5421 5423 5435
5453 5448 5447 5444 5445 5448 5454 5431 5430 5446 5434 5433 5442 5456 5463 5462 5463 5467 5468 5469 5470 5467 5451 5449 5448 5446 5439 5438 5446 5436 5434 5425 5418 5420 5420 5417 5416 5411 5405 5401 5407 5405 5426 5412
5457 5450 5446 5442 5443 5441 5438 5433 5437 5432 5440 5439 5433 5448 5455 5465 5456 5461 5460 5463 5455 5452 5451 5454 5443 5445 5438 5441 5429 5423 5418 5410 5402 5407 5417 5413 5410 5406 5402 5405 5407 5400 5403 5407
5461 5451 5443 5439 5440 5445 5435 5433 5441 5444 5431 5435 5435 5444 5450 5453 5452 5446 5453 5445 5439 5442 5441 5441 5442 5436 5432 5432 5427 5415 5404 5405 5408 5412 5417 5417 5411 5405 5401 5398 5385 5380 5393 5388
5459 5447 5440 5437 5437 5441 5433 5442 5443 5436 5431 5440 5449 5447 5448 5441 5442 5441 5434 5441 5441 5434 5431 5429 5433 5424 5418 5418 5413 5406 5398 5403 5402 5406 5415 5405 5403 5399 5396 5390 5386 5378 5376 5375
5448 5441 5435 5430 5432 5433 5432 5439 5444 5441 5436 5446 5437 5438 5436 5432 5434 5428 5432 5430 5431 5428 5430 5430 5425 5417 5421 5413 5406 5400 5402 5400 5400 5395 5399 5409 5393 5394 5385 5379 5379 5367 5365 5368
5438 5433 5429 5427 5428 5429 5430 5431 5439 5444 5438 5432 5441 5433 5436 5429 5425 5416 5414 5416 5417 5422 5422 5425 5420 5414 5424 5411 5397 5389 5388 5385 5392 5388 5385 5396 5397 5384 5379 5373 5383 5362 5359 5358
5428 5424 5422 5422 5421 5422 5429 5428 5435 5438 5418 5415 5427 5421 5426 5421 5417 5415 5413 5414 5416 5415 5408 5410 5413 5415 5421 5411 5392 5372 5380 5370 5378 5379 5368 5384 5380 5376 5376 5382 5370 5359 5355 5351
5417 5416 5414 5413 5417 5422 5428 5419 5424 5432 5410 5407 5415 5419 5416 5416 5419 5428 5412 5415 5411 5403 5403 5405 5405 5411 5407 5402 5394 5376 5384 5379 5374 5359 5354 5381 5372 5374 5379 5364 5359 5353 5352 5348
5407 5408 5410 5413 5418 5420 5422 5416 5417 5423 5416 5400 5402 5408 5412 5424 5425 5415 5405 5414 5407 5403 5392 5382 5392 5400 5390 5393 5394 5370 5376 5381 5389 5383 5390 5367 5370 5361 5356 5353 5352 5349 5348 5343
5404 5407 5408 5408 5409 5411 5417 5410 5412 5418 5402 5398 5400 5400 5408 5416 5419 5424 5416 5405 5406 5403 5400 5390 5390 5399 5386 5386 5387 5379 5371 5379 5378 5374 5372 5370 5361 5358 5354 5351 5349 5346 5341 5337
5396 5397 5398 5400 5404 5407 5412 5407 5404 5412 5401 5385 5382 5395 5399 5405 5414 5418 5420 5411 5401 5397 5398 5393 5388 5392 5381 5383 5383 5383 5377 5378 5376 5371 5368 5365 5356 5357 5352 5349 5342 5338 5334 5329
5389 5391 5392 5395 5399 5400 5403 5403 5401 5409 5413 5387 5383 5388 5389 5397 5407 5408 5408 5407 5402 5400 5397 5388 5385 5378 5379 5369 5371 5371 5373 5378 5374 5382 5368 5365 5357 5349 5349 5343 5335 5330 5326 5323
5382 5384 5386 5389 5393 5398 5405 5389 5397 5405 5417 5394 5380 5373 5381 5388 5394 5395 5395 5396 5392 5390 5389 5379 5376 5373 5377 5369 5368 5375 5368 5370 5370 5375 5365 5360 5348 5341 5338 5333 5327 5322 5318 5314
5377 5381 5384 5388 5394 5397 5390 5393 5398 5405 5412 5394 5376 5375 5376 5383 5385 5381 5385 5385 5382 5385 5374 5376 5375 5373 5370 5363 5365 5370 5365 5364 5363 5363 5357 5348 5343 5336 5325 5322 5319 5315 5310 5308
5371 5375 5380 5384 5388 5387 5383 5388 5398 5406 5402 5396 5369 5370 5377 5379 5378 5379 5372 5378 5375 5371 5371 5367 5371 5364 5359 5365 5370 5361 5355 5352 5350 5347 5347 5343 5332 5324 5317 5313 5312 5308 5304 5300
5366 5371 5377 5380 5376 5371 5377 5386 5395 5400 5398 5382 5375 5378 5372 5373 5372 5374 5371 5368 5371 5362 5368 5368 5364 5362 5365 5371 5368 5358 5351 5354 5343 5336 5334 5331 5326 5318 5311 5306 5303 5301 5296 5293
5365 5369 5365 5352 5361 5371 5380 5380 5379 5377 5376 5381 5374 5375 5376 5375 5375 5371 5372 5369 5366 5371 5366 5356 5357 5367 5360 5355 5359 5354 5347 5341 5336 5333 5328 5323 5318 5312 5305 5300 5295 5292 5289 5286
5359 5354 5357 5356 5364 5369 5363 5351 5359 5360 5362 5372 5371 5378 5379 5370 5374 5372 5360 5368 5361 5361 5365 5359 5359 5364 5351 5344 5342 5338 5333 5328 5323 5320 5315 5313 5310 5304 5300 5293 5289 5285 5281 5276
5358 5361 5356 5356 5356 5350 5349 5334 5353 5370 5374 5367 5374 5374 5376 5368 5371 5366 5359 5362 5356 5366 5356 5354 5359 5352 5338 5334 5328 5323 5320 5316 5311 5308 5304 5300 5296 5293 5290 5286 5281 5276 5270 5264
5353 5351 5340 5345 5337 5334 5335 5330 5351 5363 5368 5367 5371 5367 5371 5365 5365 5353 5349 5353 5353 5356 5355 5365 5361 5344 5333 5325 5316 5310 5306 5303 5300 5296 5293 5290 5286 5282 5279 5274 5268 5263 5261 5255
5335 5324 5312 5322 5313 5339 5352 5366 5370 5362 5366 5370 5369 5362 5372 5356 5354 5341 5354 5340 5348 5343 5341 5360 5343 5338 5328 5318 5309 5303 5298 5292 5290 5288 5285 5280 5276 5269 5261 5256 5252 5251 5252 5245
5326 5326 5301 5312 5329 5344 5352 5359 5364 5357 5361 5367 5364 5358 5359 5346 5343 5343 5341 5341 5340 5344 5349 5344 5330 5329 5317 5308 5302 5296 5290 5283 5280 5275 5270 5264 5260 5259 5254 5247 5244 5242 5237 5234
5322 5315 5324 5329 5342 5347 5352 5351 5351 5352 5354 5357 5357 5344 5340 5342 5342 5344 5342 5345 5341 5348 5337 5330 5322 5315 5310 5304 5298 5292 5285 5279 5272 5265 5261 5256 5252 5250 5246 5238 5234 5229 5227 5224
5307 5311 5309 5318 5332 5334 5335 5338 5342 5344 5350 5345 5342 5337 5341 5339 5340 5342 5341 5338 5342 5330 5323 5314 5312 5309 5302 5296 5289 5280 5275 5269 5264 5257 5253 5249 5243 5237 5237 5234 5228 5223 5218 5213